EHI
0 0 0 0 0 0 0 1 0 0 0 0 0 0 1 1 1 0 0 0 0 0 0 0 0 0 0 0 0 0 0 0 0 0 0 0 0 0
0 0 0 0 0 0 0 1 0 0 0 0 0 0 0 0 0 0 0 0 0 0 0 0 0 0 0 0 0 0 0 0 0 0 0 0 0 0
0 0 0 0 1 0 0 0 0 0 0 0 1 0 0 0 0 0 0 0 0 0 0 0 0 0 0 0 0 0 0 0 0 0 0 0 0 0
0 0 0 0 0 0 0 0 0 0 0 0 0 0 0 0 0 1 0 0 0 0 0 0 0 0 0 0 0 0 0 0 0 0 0 0 0 0
0 0 0 0 0 0 0 0 0 0 0 0 0 0 0 0 0 0 0 0 0 0 0 0 0 0 0 0 0 0 0 0 0 0 0 0 0 0
0 0 0 0 0 0 0 0 0 0 0 0 0 0 0 0 0 0 0 0 0 0 0 0 0 0 0 0 0 0 0 0 0 0 0 0 0 0
0 0 0 0 0 0 0 0 0 0 0 0 0 0 0 0 0 0 0 0 0 0 0 0 0 0 0 0 0 0 0 0 0 0 0 0 0 0
0 0 0 0 0 0 0 0 0 0 0 0 0 0 0 0 0 0 0 0 0 0 0 0 0 0 0 0 0 0 0 0 0 0 0 0 0 0
0 0 0 0 0 0 0 0 0 0 0 0 0 0 0 0 0 0 0 0 0 0 0 0 0 0 0 0 0 0 0 0 0 0 0 0 0 0
0 0 0 0 0 0 0 0 0 0 0 0 0 0 0 0 0 0 0 0 0 0 0 0 0 0 0 0 0 0 0 0 0 0 0 0 0 0
0 0 0 0 0 0 0 0 0 0 0 0 0 0 0 0 0 0 0 0 0 0 0 0 0 0 0 0 0 0 0 0 0 0 0 0 0 0
0 0 0 0 0 0 0 0 0 0 0 0 0 0 0 0 0 0 0 0 0 0 0 0 0 0 0 0 0 0 0 0 0 0 0 0 0 0
0 0 0 0 0 0 0 0 0 0 0 0 0 0 0 0 0 0 0 0 0 0 0 0 0 0 0 0 0 0 0 0 0 0 0 0 0 0
0 0 0 0 0 0 0 0 0 0 0 0 0 0 0 0 0 0 0 0 0 0 0 0 0 0 0 0 0 0 0 0 0 0 0 0 0 0
0 0 0 0 0 0 0 0 0 0 0 0 0 0 0 0 0 0 0 0 0 0 0 0 0 0 0 0 0 0 0 0 0 0 0 0 0 0
0 0 0 0 0 0 0 0 0 0 0 0 0 0 0 0 0 0 0 0 0 0 0 0 0 0 0 0 0 0 0 0 0 0 0 0 0 0
0 0 0 0 0 0 0 0 0 0 0 0 0 0 0 0 0 0 0 0 0 0 0 0 0 0 0 0 0 0 0 0 0 0 0 0 0 0
0 0 0 0 0 0 0 0 0 0 0 0 0 0 0 0 0 0 0 0 0 0 0 0 0 0 0 0 0 0 0 0 0 0 0 0 0 0
0 0 0 0 0 0 0 0 0 0 0 0 0 0 0 0 0 0 0 0 0 0 0 0 0 0 0 0 0 0 0 0 0 0 0 0 0 0
0 0 0 0 0 0 0 0 0 0 0 0 0 0 0 0 0 0 0 0 0 0 0 0 0 0 0 0 0 0 0 0 0 0 0 0 0 0
0 0 0 0 0 0 0 0 0 0 0 0 0 0 0 0 0 0 0 0 0 0 0 0 0 0 0 0 0 0 0 0 0 0 0 0 0 0
0 0 0 0 0 0 0 0 0 0 0 0 0 0 0 0 0 0 0 0 0 0 0 0 0 0 0 0 0 0 0 0 0 0 0 0 0 0
0 0 0 0 0 0 0 0 0 0 0 0 0 0 0 0 0 0 0 0 0 0 0 0 0 0 0 0 0 0 0 0 0 0 0 0 0 0
Wind_Speed
7 8 6 5 5 5 5 5 5 5 5 5 4 5 5 5 7 8 8 11 11 10 9 9 9 8 8 7 6 5 5 5 4 4 4 3 3 3
5 7 7 6 5 6 6 6 6 5 4 4 4 4 5 5 6 7 6 11 11 10 10 9 9 9 9 8 7 6 5 5 5 4 3 3 2 3
6 6 7 7 5 5 6 6 6 5 5 3 2 3 5 6 6 5 6 6 7 11 10 10 10 9 9 8 7 7 6 6 5 5 4 4 3 2
5 6 6 5 7 5 5 6 5 6 5 5 4 4 4 5 6 5 4 4 4 9 10 10 10 9 9 8 7 7 6 6 5 5 5 4 4 4
4 5 5 5 6 5 5 5 5 5 5 5 4 3 3 4 5 5 5 4 4 7 9 9 9 9 9 8 8 7 7 6 5 5 5 4 4 5
3 3 4 4 5 5 5 6 5 6 6 6 5 5 4 5 5 5 5 4 4 4 5 6 8 9 8 8 8 8 7 7 6 6 6 6 5 5
2 3 2 2 2 3 3 5 6 6 6 6 6 5 6 6 6 5 5 5 4 3 4 4 5 4 5 7 8 8 7 7 7 7 7 7 6 6
1 1 2 3 4 4 2 2 3 5 7 6 6 7 8 7 6 6 6 6 4 3 4 3 3 3 3 4 6 7 8 8 8 8 8 7 7 6
1 0 0 1 3 4 5 5 3 3 4 5 6 7 8 9 9 9 7 6 4 5 4 3 3 3 3 5 8 8 8 9 9 9 8 8 7 7
2 1 1 0 1 1 3 3 2 2 3 5 5 6 6 7 8 7 7 6 6 4 3 3 3 3 3 4 7 7 8 8 9 8 8 8 7 7
3 3 2 1 2 0 3 4 4 3 3 4 4 4 6 7 7 7 7 7 5 3 2 3 4 3 3 3 5 8 8 8 8 9 9 8 6 6
3 3 4 3 2 1 3 4 4 4 4 5 5 7 7 8 8 7 7 7 5 4 4 4 5 4 3 2 2 4 5 7 7 7 8 6 4 4
2 3 3 4 3 2 1 2 3 3 4 4 4 4 5 5 5 4 4 5 5 3 6 5 5 4 3 4 3 3 4 5 5 6 7 6 3 3
2 2 3 4 4 3 2 5 4 2 3 4 4 4 4 4 4 4 5 4 3 4 7 6 4 4 4 5 4 4 4 4 4 4 5 7 5 2
3 5 5 3 2 4 5 3 3 3 3 4 4 4 4 5 5 5 6 6 7 5 5 5 5 5 4 4 5 5 5 4 5 4 4 5 5 5
1 3 3 3 2 3 4 3 1 1 2 3 4 4 4 5 5 5 5 5 5 4 4 3 4 5 3 4 4 5 5 5 5 5 4 4 4 4
2 1 1 1 2 2 2 2 2 3 3 3 4 4 5 4 4 4 4 4 4 5 5 3 3 3 2 3 4 5 5 5 5 5 5 5 5 5
3 2 1 1 2 2 2 2 2 3 3 3 4 4 5 5 5 4 4 4 4 5 5 5 5 5 4 2 1 4 5 5 5 5 5 5 5 5
4 3 2 2 2 3 3 3 3 3 4 4 4 4 4 5 5 5 4 4 4 5 5 5 6 6 6 6 5 4 5 5 5 5 6 5 5 4
5 4 4 4 4 4 4 3 3 4 4 4 4 4 5 5 5 5 5 5 5 5 5 5 5 5 4 2 3 5 6 6 6 6 6 5 5 2
6 6 5 5 5 5 4 4 5 5 5 5 5 5 5 5 5 5 5 6 5 6 6 6 3 1 1 1 3 4 6 5 4 4 5 5 5 6
7 7 6 6 6 6 6 6 6 6 6 6 6 6 6 6 6 7 6 7 7 6 6 5 6 5 5 5 5 5 6 7 5 5 7 7 5 4
8 8 7 7 7 7 7 8 9 7 7 7 7 7 7 7 6 7 7 7 6 7 6 6 6 5 6 5 5 4 5 6 6 7 8 12 13 11
Wind_Direction
228 224 221 217 208 208 208 209 203 202 204 195 187 195 198 201 166 191 193 174 180 179 178 176 173 171 167 167 167 169 175 174 172 182 196 206 212 224
228 227 224 220 210 210 211 214 217 217 210 184 186 179 187 192 182 197 191 162 174 175 174 170 167 167 166 163 161 161 160 159 161 163 169 173 189 197
227 223 222 220 216 211 209 210 211 211 213 187 167 163 177 182 171 182 177 175 169 168 170 170 168 164 160 157 155 156 154 154 153 151 153 150 146 140
231 225 222 213 213 212 207 207 206 205 202 187 174 173 182 177 166 163 161 162 158 152 159 161 161 159 156 155 153 153 152 149 148 147 146 147 143 134
232 228 224 217 210 204 204 201 199 199 198 190 177 172 172 171 162 153 145 134 133 140 148 149 150 151 151 152 150 147 144 142 140 139 134 129 123 124
235 231 221 218 218 212 206 203 200 200 197 189 180 175 170 168 170 162 150 140 135 135 134 133 137 140 143 147 150 149 146 143 140 134 126 121 119 118
221 219 208 210 228 237 227 208 199 199 195 189 182 178 175 173 174 166 155 142 132 140 139 139 142 145 148 146 144 142 142 141 139 133 124 118 115 111
227 205 183 188 184 189 201 226 223 209 198 190 188 186 186 179 167 163 159 157 150 154 144 128 132 133 132 124 125 132 137 142 139 134 127 123 119 116
348 249 190 158 193 183 168 186 197 215 225 215 198 194 189 181 172 171 174 168 145 147 139 121 118 110 101 104 124 134 137 137 136 133 129 125 122 119
23 24 9 62 124 184 175 174 169 178 214 222 210 199 190 177 177 170 155 131 109 119 136 126 130 114 103 103 110 122 130 132 133 132 130 124 122 124
36 32 19 42 72 65 192 168 157 138 97 77 72 117 127 142 151 147 147 148 140 139 143 131 136 125 111 99 106 112 120 127 130 131 128 124 130 152
42 52 54 35 31 307 206 169 154 142 139 131 123 129 135 136 149 165 162 161 149 147 160 144 148 149 136 125 127 138 130 124 129 133 135 137 158 203
39 44 51 48 43 12 312 130 118 130 135 129 123 126 131 136 144 147 155 166 162 146 156 153 158 166 147 143 157 169 163 157 158 152 154 159 184 279
29 42 61 54 61 52 74 94 105 138 142 137 132 128 126 125 120 115 116 106 92 126 153 160 157 171 159 158 160 169 178 180 179 175 168 163 182 193
39 44 43 49 105 109 102 120 171 168 148 141 131 118 111 116 116 112 108 100 90 98 140 160 157 164 176 173 159 164 176 184 190 189 181 185 191 188
94 106 110 73 92 109 146 165 163 114 134 130 124 123 124 128 135 138 137 136 123 116 117 140 156 167 183 169 166 172 179 178 184 195 196 204 215 209
321 227 181 158 137 124 124 123 137 143 139 138 142 145 144 142 140 143 155 163 159 150 142 133 130 134 158 176 182 184 184 184 180 186 199 212 218 218
274 228 205 193 173 163 165 159 159 155 154 156 160 159 158 158 155 157 171 176 166 159 155 156 157 157 164 154 264 198 191 188 182 186 207 222 223 212
252 241 224 212 205 198 192 191 183 166 161 168 173 170 169 168 169 170 175 177 170 167 166 175 188 196 203 192 168 230 210 188 188 195 210 225 236 225
239 244 236 224 215 211 205 201 195 183 181 184 182 180 179 180 181 182 183 184 177 173 175 187 202 215 231 233 158 169 212 208 200 209 211 220 232 231
232 233 234 229 222 216 210 206 204 199 195 196 195 192 193 193 193 194 188 174 192 191 192 190 165 186 207 189 200 187 178 204 262 243 228 221 228 228
236 232 229 228 223 218 213 210 209 205 203 206 201 199 202 205 203 201 196 189 198 204 198 164 152 183 206 220 228 201 181 180 194 231 264 264 252 250
231 230 226 222 221 216 214 213 214 211 208 208 205 203 203 205 208 206 202 203 202 198 190 180 181 197 212 221 231 227 213 208 207 210 221 217 227 248